World > North America > United States > Texas

Hourly Westworth, TX Regional Weather

Feedback E-mail the Weather

Quick WX

Westworth, TX Weather Maps

°F °C°F °C
Westworth Weather Map
UTC Time: 6/29/2022, 04:17
Your Time:

Westworth, TX Regional Weather

Expires:202206290500;;365238
ASUS44 KFWD 290403
RWRTX 
NORTH TEXAS HOURLY WEATHER ROUNDUP
NATIONAL WEATHER SERVICE FORT WORTH TX
1100 PM CDT TUE JUN 28 2022

NOTE: "FAIR" INDICATES FEW OR NO CLOUDS BELOW 12,000 FEET WITH NO
SIGNIFICANT WEATHER AND/OR OBSTRUCTIONS TO VISIBILITY.


TXZ118-119-290500-
DALLAS/FORT WORTH METROPLEX
  
CITY           SKY/WX    TMP DP  RH WIND       PRES   REMARKS
DFW AIRPORT    FAIR      81  56  42 NE10      30.12R                  
DALLAS LOVE    FAIR      82  59  45 NE8       30.13R                  
FTW MEACHAM    FAIR      81  56  42 NE10      30.12R                  
DAL-EXECUTIVE  FAIR      82  53  36 NE6       30.12R                  
FTW-ALLIANCE   FAIR      80  58  46 NE10      30.13R                  
FTW-NAS-JRB    FAIR      83  60  45 NE7       30.13R                  
FTW-SPINKS     FAIR      79  52  38 CALM      30.15R                  
ARLINGTON      FAIR      84  51  31 NE5       30.13R                  
GRAND PRAIRIE  FAIR      83  50  31 NE5       30.14R                  
ADDISON        FAIR      80  57  45 NE5       30.16R                  
MESQUITE       FAIR      78  54  43 E3        30.13R                  
LANCASTER      FAIR      80  53  39 NE3       30.13R                  
$$


SKY/WX - Weather  TMP - Temperature  DP - Dew Point  RH - Humidity
WIND - Wind Direction/Speed PRES - Barometric Pressure VSB - Visibility
WCI - Wind Chill Index E13G22 Wind - East Wind 13 mph/Gusts of 22 mph

Trending Headlines

Westworth Radar Loop



Westworth Quick Facts


National Two Day Weather Forecast


E-mail the Westworth Weather Forecast

Voice your opinion or tell us about page issues...